DECAYED

STARLINK-2271, 48008 (Decayed)

Orbit data source: Space-Track

STARLINK-2271, 48008 was a payload satellite owned by SpaceX/Seattle (US) in LEO that was launched on Wed, 24 Mar 2021 UTC via an FALCON 9 launch vehicle from the Air Force Eastern Test Range (AFETR). Payload-class satellites include a variety of spacecraft equipped with specific instruments for various scientific and technological missions. These include communications satellites like Starlink; space stations such as the ISS; scientific satellites like the Hubble; Earth observation satellites from companies like Planet Labs, Umbra, and HawkEye 360; GPS; miniature CubeSats for education and research; and military/defense satellites.

Not visible in the next 10 days
Identifier
48008, 2021-024AH
Orbit
Decayed
Country
Flag of USUS
Related business
Manufacturer
SpaceX/Seattle
Mission
Decayed Commercial Communications
Bus & Motor
STARLINK, Unknown motor
Mass
260 kg wet, ~248 kg dry
Launch date (UTC)
2021-03-24 (5 years ago)
Launch vehicle
FALCON 9
Launch site
Air Force Eastern Test Range (AFETR)
Object type
Payload
Rocket body
Debris
Shape & HBR
Box + 1 Pan, 10.1 m
Radar Cross Section
13.562 m², Large (>1 m²)

Expand to show TLE details & history
Last TLE update: 7 months ago

TLE from 7 months ago
0 STARLINK-2271
1 48008U 21024AH  25131.83369876  .18890074  12465-4  66658-3 0  9994
2 48008  53.0265 119.5836 0005873 263.3434 164.7094 16.44102317230380
Epoch: 2025-05-11T20:00Z
TLE epoch observation values (Epoch: 2025-05-11T20:00:31.572Z)
Latitude
47.97883°
Longitude
5.76421°
Altitude
163.915 km
Speed
7.812 km/s
True Right ascension
11h 43m 00s
True Declination
47° 47' 32"
Sunlit
Object was in daylight at epoch
Visualization orbit readout
Latitude
Unknown
Longitude
Unknown
Altitude
Unknown
Speed
Unknown
Apparent Right ascension
Unknown
Apparent Declination
Unknown
Sunlit
N/A
Visualization observer readout
Local Sidereal Time
08:23:15
Azimuth
Unknown
Elevation
Unknown
Doppler factor
Unknown
Orbital elements
Apogee altitude
159.041 km
Perigee altitude
151.367 km
Semi-major axis
6,533.341 km
Eccentricity
0.00059
Inclination
53.0265°
RAAN
119.5836°
Arg. of periapsis
263.3434°
True anomaly
164.72714°
Mean anomaly
164.7094°
Eccentric anomaly
164.71827°
Mean motion
4.10998 °/min
Orbital period
87.59 mins
BSTAR
0.00066658
Loading maneuver chart data...
Computing Atmospheric mass density...

Documentation

Showing up to 5 results
|